Altoona, PA

8:31 PM EST on November 13, 2019 (GMT -0500)
Altoona-Blair County

Weather History for KAOO - September, 2019

Change the Weather History Date:

Saturday, September 28, 2019

  Actual Average Record
Temperature  
Mean Temperature 74 °F 57 °F  
Max Temperature 89 °F 67 °F 89 °F (2019)
Min Temperature 59 °F 47 °F 30 °F (1957)
Degree Days  
Heating Degree Days 0 9  
Month to date heating degree days 32 129  
Since 1 July heating degree days 41 161  
Cooling Degree Days 9 1  
Month to date cooling degree days 87 47  
Year to date cooling degree days 732 526  
Growing Degree Days 22 (Base 50)    
Moisture  
Dew Point 61 °F    
Average Humidity 68    
Maximum Humidity 93    
Minimum Humidity 42    
Precipitation  
Precipitation 0.02 in 0.11 in 4.53 in (1967)
Month to date precipitation 1.15 3.24  
Year to date precipitation 30.84 27.17  
Sea Level Pressure  
Sea Level Pressure 30.08 in    
Wind  
Wind Speed 7 mph (WSW)    
Max Wind Speed 18 mph    
Max Gust Speed 24 mph    
Visibility 10 miles    
Events Rain , Thunderstorm    
T = Trace of Precipitation, MM = Missing Value Source: NWS Daily Summary

Daily Weather History Graph

Daily Weather History Graph

Search for Another Location

Airport or City:

Astronomy

Sep. 28, 2019 Rise Set
Actual Time 7:06 AM EDT 7:00 PM EDT
Civil Twilight 6:39 AM EDT 7:27 PM EDT
Nautical Twilight 6:07 AM EDT 7:59 PM EDT
Astronomical Twilight 5:35 AM EDT 8:31 PM EDT
Moon 6:40 AM EDT (9/28) 7:25 PM EDT (9/28)
Length of Visible Light 12h 48m
Length of Day
11h 54m
Waning Crescent, 0% of the Moon is Illuminated
Sep 28
Waning Crescent
Sep 28
New
Oct 5
First Quarter
Oct 13
Full
Oct 21
Last Quarter

Hourly Weather History & Observations

Time (EDT) Temp. Heat Index Dew Point Humidity Pressure Visibility Wind Dir Wind Speed Gust Speed Precip Events Conditions
12:53 AM 66.9 °F - 57.0 °F 70% 30.04 in 10.0 mi SSW 10.4 mph - N/A   Clear
1:53 AM 66.9 °F - 57.0 °F 70% 30.03 in 10.0 mi South 6.9 mph - N/A   Clear
2:53 AM 63.0 °F - 55.9 °F 78% 30.04 in 10.0 mi South 4.6 mph - N/A   Clear
3:53 AM 64.9 °F - 57.0 °F 75% 30.04 in 10.0 mi South 6.9 mph - N/A   Clear
4:53 AM 62.1 °F - 55.9 °F 80% 30.05 in 10.0 mi South 4.6 mph - N/A   Clear
5:53 AM 59.0 °F - 55.0 °F 87% 30.06 in 10.0 mi Calm Calm - N/A   Clear
6:53 AM 61.0 °F - 57.0 °F 87% 30.06 in 10.0 mi Calm Calm - N/A   Partly Cloudy
7:53 AM 63.0 °F - 57.9 °F 84% 30.07 in 10.0 mi Calm Calm - N/A   Partly Cloudy
8:53 AM 69.1 °F - 59.0 °F 70% 30.07 in 10.0 mi Calm Calm - N/A   Clear
9:53 AM 72.0 °F - 61.0 °F 68% 30.09 in 10.0 mi SW 3.5 mph - N/A   Clear
10:53 AM 80.1 °F 81.2 °F 62.1 °F 54% 30.06 in 10.0 mi SSW 9.2 mph - N/A   Clear
11:53 AM 82.9 °F 84.0 °F 63.0 °F 51% 30.06 in 10.0 mi SW 13.8 mph - N/A   Clear
12:53 PM 82.9 °F 84.0 °F 63.0 °F 51% 30.06 in 10.0 mi SW 10.4 mph - N/A   Clear
1:53 PM 84.9 °F 85.9 °F 63.0 °F 48% 30.04 in 10.0 mi WSW 12.7 mph 20.7 mph N/A   Scattered Clouds
2:53 PM 86.0 °F 86.3 °F 62.1 °F 44% 30.03 in 10.0 mi West 15.0 mph 19.6 mph N/A   Partly Cloudy
3:53 PM 86.0 °F 86.1 °F 61.0 °F 43% 30.02 in 10.0 mi WNW 11.5 mph - N/A   Partly Cloudy
4:53 PM 86.0 °F 86.3 °F 62.1 °F 44% 30.04 in 10.0 mi WNW 12.7 mph - N/A   Clear
5:53 PM 82.0 °F 83.1 °F 63.0 °F 52% 30.07 in 10.0 mi NW 9.2 mph - N/A   Clear
6:53 PM 79.0 °F - 63.0 °F 58% 30.08 in 10.0 mi NW 3.5 mph - N/A   Clear
7:53 PM 75.9 °F - 63.0 °F 64% 30.10 in 10.0 mi NW 3.5 mph - N/A   Clear
8:35 PM 75.0 °F - 64.0 °F 69% 30.16 in 10.0 mi WNW 5.8 mph - 0.00 in Rain , Thunderstorm Light Rain
8:53 PM 75.0 °F - 64.9 °F 71% 30.14 in 9.0 mi North 8.1 mph - 0.00 in Rain , Thunderstorm Light Thunderstorms and Rain
9:07 PM 73.9 °F - 66.0 °F 76% 30.18 in 9.0 mi NW 8.1 mph - 0.01 in Rain , Thunderstorm Light Rain
9:25 PM 72.0 °F - 66.9 °F 84% 30.18 in 8.0 mi West 4.6 mph - 0.02 in Rain Light Rain
9:53 PM 71.1 °F - 66.0 °F 84% 30.15 in 10.0 mi WNW 5.8 mph - 0.02 in   Partly Cloudy
10:53 PM 69.1 °F - 64.9 °F 87% 30.15 in 10.0 mi NW 3.5 mph - N/A   Clear
11:53 PM 66.0 °F - 64.0 °F 93% 30.15 in 8.0 mi South 4.6 mph - N/A   Clear